Location: Normandy Village
(37.8755°N, 122.2655°W)
Time: 02:26:44
(UTC+00:00)

Shenzhou-11 Module - Pass Details

Date: 08 December 2019
Orbit: 303 x 315 km, 42.8° (Epoch: 18 January)

Event Time Altitude Azimuth Distance (km) Brightness Sun altitude
Rises 01:37:46 0° 279° (W) 2,064 6.9 -9.4°
Reaches altitude 10° 01:39:54 10° 291° (WNW) 1,229 5.4 -9.8°
Maximum altitude 01:42:21 28° 354° (N) 635 3.0 -10.3°
Enters shadow 01:43:58 16° 46° (NE) 934 3.4 -10.6°
